User: anonymous   Login
Location: �quirre
(50.4736°N, 2.2351°E)
Time: 10:29:00
(UTC+00:00)
Language:

Cosmos 1809 Rocket - Orbit

View from above orbital plane
View from above orbital plane
View from above satellite
View from above satellite

Ground track
Ground track

The orbit data is extracted from the following two-line orbital elements,

1 17242U 86101B   20304.90191390 +.00000025 +00000-0 +94194-5 0  9992
2 17242 082.5271 124.0135 0014724 193.6510 272.7731 13.83293893709747
Epoch (UTC): 30 October 2020 21:38:45
Eccentricity: 0.0014724
inclination: 82.5271°
perigee height: 941 km
apogee height: 963 km
right ascension of ascending node: 124.0135°
argument of perigee: 193.6510°
revolutions per day: 13.83293893
mean anomaly at epoch: 272.7731°
orbit number at epoch: 70974

The dashed part of the orbit path shows where the satellite is in the earth's shadow,  

DLR